"Pseudo-MPEC" for X69881

Created 2020 Sep 17 23:07:58 UT using Find_Orb

Click here for an explanation of pseudo-MPECs

 
 Astrometry: 
     X69881   C2020 08 28#lXAstrometryyk6M2vQh[`AgRRstm.s6V5Em1Hm#ZcVKT*7P52OD29
     X69881   C2020 08 28!NSZi'Mw=-ib0redacted;H#je4p?r-clickp-g\6herehd,uDvVD29
     X69881   C2020 08 28Ks0h[yP[y:]W*IETh=b8J)t:rfor^FG\Bexplanation$-p4OQh%D29

Station data:
(D29) Purple Mountain Observatory, XuYi Station  (N32.734366 E118.463900)
   China.  Observers H. B. Zhao, B. Li, G. Zhaori, R. Q. Hong, L. F. Hu.
   Measurers H. B. Zhao, B. Li. H. Lu, G. Zhaori. 1.04-m f/1.8 Schmidt + CCD.

Orbital elements:  X69881
   Perihelion 2020 Aug 5.857754 +/- 48.6 TT = 20:35:10 (JD 2459067.357754)
Epoch 2020 Aug 29.0 TT = JDT 2459090.5   Earth MOID: 0.3658   Ma: 0.0903
M   6.69775614 +/- 18               (J2000 ecliptic)          AutoNEOCP
n   0.28941686 +/- 0.256            Peri.  131.66231 +/- 80
a   2.26353298 +/- 1.33             Node   188.56944 +/- 47
e   0.3980232 +/- 0.251             Incl.    7.19270 +/- 4.9
P   3.41                   H 22.0   G  0.15   U 11.8  SR
q 1.36259423 +/- 0.371    Q 3.16447173 +/- 70.5
From 3 observations 2020 Aug. 28 (40.7 min); mean residual 0".29
Residuals in arcseconds: 
200828 D29  .22+  .19+    200828 D29  .44-  .38-    200828 D29  .22+  .19+    

Ephemerides (geocentric):
Date (UTC) HH   RA              Dec         delta   r     elong  mag " sig PA
---- -- -- --  -------------   -----------  ------ ------ -----  --- ---- ---
2020 09 17 23  22 39 36.185   -00 38 44.34  .42570 1.4193 164.2 21.6  58d   4
2020 09 18 00  22 39 37.732   -00 39 27.34  .42586 1.4194 164.2 21.6  58d   4
2020 09 18 01  22 39 39.281   -00 40 10.32  .42602 1.4195 164.2 21.6  58d   4
2020 09 18 02  22 39 40.832   -00 40 53.26  .42618 1.4196 164.2 21.6  58d   4
2020 09 18 03  22 39 42.385   -00 41 36.18  .42634 1.4197 164.1 21.6  58d   4
2020 09 18 04  22 39 43.939   -00 42 19.07  .42650 1.4198 164.1 21.6  58d   4
2020 09 18 05  22 39 45.495   -00 43 01.92  .42667 1.4199 164.1 21.6  58d   4
2020 09 18 06  22 39 47.053   -00 43 44.75  .42683 1.4200 164.0 21.6  59d   4
2020 09 18 07  22 39 48.613   -00 44 27.55  .42699 1.4201 164.0 21.6  59d   4
2020 09 18 08  22 39 50.175   -00 45 10.32  .42715 1.4203 164.0 21.6  59d   4
2020 09 18 09  22 39 51.738   -00 45 53.06  .42732 1.4204 164.0 21.6  59d   4
2020 09 18 10  22 39 53.303   -00 46 35.77  .42748 1.4205 163.9 21.6  59d   4
2020 09 18 11  22 39 54.870   -00 47 18.44  .42765 1.4206 163.9 21.6  59d   4
2020 09 18 12  22 39 56.438   -00 48 01.09  .42781 1.4207 163.9 21.6  59d   4
2020 09 18 13  22 39 58.009   -00 48 43.71  .42797 1.4208 163.8 21.6  59d   4
2020 09 18 14  22 39 59.581   -00 49 26.30  .42814 1.4209 163.8 21.6  59d   4
2020 09 18 15  22 40 01.155   -00 50 08.86  .42830 1.4210 163.8 21.6  59d   4
2020 09 18 16  22 40 02.730   -00 50 51.38  .42847 1.4211 163.7 21.6  59d   4
2020 09 18 17  22 40 04.308   -00 51 33.88  .42863 1.4212 163.7 21.6  59d   4
2020 09 18 18  22 40 05.887   -00 52 16.35  .42880 1.4213 163.7 21.6  59d   4
2020 09 18 19  22 40 07.469   -00 52 58.78  .42897 1.4214 163.7 21.6  59d   4
2020 09 18 20  22 40 09.052   -00 53 41.18  .42913 1.4215 163.6 21.6  59d   4
2020 09 18 21  22 40 10.636   -00 54 23.56  .42930 1.4216 163.6 21.6  59d   4
2020 09 18 22  22 40 12.223   -00 55 05.90  .42947 1.4217 163.6 21.6  59d   4
2020 09 18 23  22 40 13.812   -00 55 48.21  .42963 1.4219 163.5 21.6  59d   4
2020 09 19 00  22 40 15.402   -00 56 30.49  .42980 1.4220 163.5 21.6  59d   4
2020 09 19 01  22 40 16.994   -00 57 12.74  .42997 1.4221 163.5 21.6  59d   4
2020 09 19 02  22 40 18.588   -00 57 54.95  .43014 1.4222 163.5 21.6  59d   4
2020 09 19 03  22 40 20.184   -00 58 37.14  .43030 1.4223 163.4 21.6  59d   4
2020 09 19 04  22 40 21.781   -00 59 19.29  .43047 1.4224 163.4 21.6  59d   4
2020 09 19 05  22 40 23.381   -01 00 01.41  .43064 1.4225 163.4 21.6  59d   4
2020 09 19 06  22 40 24.982   -01 00 43.50  .43081 1.4226 163.3 21.6  59d   4
2020 09 19 07  22 40 26.585   -01 01 25.56  .43098 1.4227 163.3 21.6  59d   5
2020 09 19 08  22 40 28.190   -01 02 07.58  .43115 1.4228 163.3 21.6  59d   5
2020 09 19 09  22 40 29.797   -01 02 49.57  .43132 1.4229 163.2 21.6  59d   5
2020 09 19 10  22 40 31.406   -01 03 31.53  .43149 1.4230 163.2 21.6  59d   5
2020 09 19 11  22 40 33.016   -01 04 13.46  .43166 1.4232 163.2 21.6  59d   5
2020 09 19 12  22 40 34.628   -01 04 55.36  .43183 1.4233 163.2 21.6  60d   5
2020 09 19 13  22 40 36.243   -01 05 37.22  .43200 1.4234 163.1 21.6  60d   5
2020 09 19 14  22 40 37.859   -01 06 19.05  .43217 1.4235 163.1 21.6  60d   5
2020 09 19 15  22 40 39.477   -01 07 00.85  .43234 1.4236 163.1 21.6  60d   5
2020 09 19 16  22 40 41.097   -01 07 42.61  .43252 1.4237 163.0 21.6  60d   5
2020 09 19 17  22 40 42.718   -01 08 24.34  .43269 1.4238 163.0 21.6  60d   5
2020 09 19 18  22 40 44.342   -01 09 06.04  .43286 1.4239 163.0 21.6  60d   5
2020 09 19 19  22 40 45.967   -01 09 47.70  .43303 1.4240 162.9 21.7  60d   5
2020 09 19 20  22 40 47.594   -01 10 29.34  .43320 1.4241 162.9 21.7  60d   5
2020 09 19 21  22 40 49.224   -01 11 10.93  .43338 1.4242 162.9 21.7  60d   5
2020 09 19 22  22 40 50.855   -01 11 52.50  .43355 1.4244 162.8 21.7  60d   5